Flag for Italy Weather past 2 weeks in Palermo, Italy

Now
54 °F

Light rain. Scattered clouds.


Feels Like: 47 °F
Forecast: 50 / 53 °F
Wind: 30 mph from Southwest

Location: Palermo / Punta Raisi

Current Time: Mar 5, 2015 at 11:43:06 AM

Latest Report: Mar 5, 2015 at 10:50 AM


Visibility: 6 mi

Pressure: 29.77 "Hg

Humidity: 67%

Dew point: 43 °F

Location of PalermoLocation

Historic Weather in Palermo — Graph

°F

Palermo temperature yesterday

Maximum temperature yesterday: 66 °F (at 6:20 PM)
Minimum temperature yesterday: 52 °F (at 3:20 AM)
Average temperature yesterday: 60 °F

Past Weeks' High & Low Weather Summary

 TemperatureHumidityPressure
High68 °F (Mar 3, 11:20 AM)100% (Feb 22, 8:50 AM)30.42 "Hg (Feb 22, 8:50 AM)
Low43 °F (Feb 20, 4:20 AM)49% (Mar 3, 11:20 AM)29.36 "Hg (Feb 22, 11:50 AM)
Average55 °F77%29.95 "Hg
* Reported Feb 18 10:20 AM — Mar 5 10:20 AM, Palermo, Weather by CustomWeather, © 2015

Note: Actual official high and low records may vary slightly from our data, if they occured in-between our weather recording intervals... More about our weather records

Advertising

Palermo weather history for previous 24 hours

 ConditionsComfort  
Time TempWeatherWind HumidityBarometerVisibility
10:20 AM
Thu, Mar 5
54 °FScattered clouds.29 mph67%29.80 "HgN/A
9:50 AM54 °FScattered clouds.24 mph63%29.83 "HgN/A
9:20 AM54 °FScattered clouds.24 mph67%29.83 "HgN/A
8:50 AM54 °FScattered clouds.25 mph67%29.83 "HgN/A
8:20 AM54 °FScattered clouds.22 mph67%29.86 "HgN/A
7:50 AM55 °FScattered clouds.23 mph67%29.86 "HgN/A
7:20 AM55 °FPartly sunny.28 mph67%29.86 "HgN/A
6:50 AM54 °FRain. Partly sunny.29 mph77%29.86 "Hg4 mi
6:20 AM55 °FPassing clouds.30 mph67%29.89 "HgN/A
5:20 AM55 °FPassing clouds.26 mph77%29.86 "HgN/A
4:20 AM57 °FPassing clouds.32 mph82%29.86 "HgN/A
3:50 AM59 °FPassing clouds.17 mph82%29.86 "HgN/A
2:50 AM57 °FLight rain. Passing clouds.22 mph94%29.86 "HgN/A
2:20 AM59 °FHeavy rain. Passing clouds.20 mph88%29.86 "Hg4 mi
1:50 AM61 °FLight rain. Passing clouds.18 mph77%29.86 "HgN/A
1:20 AM61 °FPassing clouds.21 mph83%29.89 "HgN/A
12:50 AM63 °FPassing clouds.25 mph73%29.89 "HgN/A
12:20 AM63 °FPassing clouds.23 mph68%29.86 "HgN/A
11:50 PM
Wed, Mar 4
64 °FPassing clouds.26 mph60%29.86 "HgN/A
11:20 PM66 °FPassing clouds.28 mph52%29.89 "HgN/A
10:20 PM66 °FPassing clouds.17 mph52%29.92 "HgN/A
9:50 PM66 °FPassing clouds.17 mph49%29.95 "HgN/A
9:20 PM64 °FPassing clouds.17 mph60%29.95 "HgN/A
8:50 PM64 °FPassing clouds.17 mph64%29.95 "HgN/A
8:20 PM64 °FPassing clouds.18 mph64%29.95 "HgN/A
7:50 PM63 °FPassing clouds.3 mph73%29.98 "HgN/A
7:20 PM63 °FPassing clouds.5 mph73%30.01 "HgN/A
6:50 PM63 °FPassing clouds.3 mph73%30.01 "HgN/A
6:20 PM66 °FPassing clouds.10 mph60%30.01 "HgN/A
5:50 PM64 °FScattered clouds.5 mph73%30.04 "HgN/A
5:20 PM63 °FScattered clouds.3 mph77%30.04 "HgN/A
4:50 PM63 °FScattered clouds.6 mph77%30.07 "HgN/A
4:20 PM63 °FScattered clouds.8 mph73%30.07 "HgN/A
3:50 PM63 °FScattered clouds.9 mph73%30.09 "HgN/A
3:20 PM63 °FScattered clouds.12 mph73%30.09 "HgN/A
2:50 PM63 °FScattered clouds.12 mph77%30.12 "HgN/A
2:20 PM61 °FScattered clouds.8 mph77%30.12 "HgN/A
1:50 PM61 °FPassing clouds.5 mph83%30.12 "HgN/A
1:20 PM61 °FScattered clouds.5 mph83%30.15 "HgN/A
12:50 PM61 °FPassing clouds.5 mph83%30.18 "HgN/A
12:20 PM63 °FPassing clouds.2 mph77%30.21 "HgN/A
11:50 AM61 °FScattered clouds.7 mph77%30.21 "HgN/A
11:20 AM59 °FScattered clouds.9 mph82%30.24 "HgN/A
Weather by CustomWeather, © 2015

See weather overviewHow to use our weather pages